Regional Weather Roundup
Issued by NWS

Home | Current Version | Previous Version | Text Only | Print | Product List | Glossary On
Versions: 1 2 3 4 5 6 7 8 9 10 11 12 13 14 15 16 17 18 19 20 21 22 23 24 25 26 27 28 29 30 31 32 33 34 35 36 37 38 39 40 41 42 43 44 45 46 47 48 49 50
000
ASUS43 KMKX 260021
RWRWI

WISCONSIN REGIONAL WEATHER ROUNDUP
NATIONAL WEATHER SERVICE MILWAUKEE/SULLIVAN WI
700 PM CDT TUE APR 25 2017

NOTE: "FAIR" INDICATES FEW OR NO CLOUDS BELOW 12,000 FEET WITH NO
SIGNIFICANT WEATHER AND/OR OBSTRUCTIONS TO VISIBILITY.

WIZ001-002-006>008-014>016-023>028-260100-
NORTHWEST WISCONSIN

CITY           SKY/WX    TMP DP  RH WIND       PRES   REMARKS
SUPERIOR ARPT  RAIN      40  39  97 NE10      29.69F WCI  33
6HR MIN TEMP:  40; 6HR MAX TEMP:  46; 6HR PCP:  0.06;

ASHLAND        CLOUDY    40  37  89 NE18G24   29.72R WCI  31
6HR MIN TEMP:  40; 6HR MAX TEMP:  53; 6HR PCP: TRACE;

HAYWARD        LGT RAIN  48  39  71 N14       29.62R
6HR MIN TEMP:  48; 6HR MAX TEMP:  69; 6HR PCP: TRACE;

SIREN          LGT RAIN  51  44  77 NE6       29.61R
6HR MIN TEMP:  51; 6HR MAX TEMP:  65; 6HR PCP:  0.01;

CUMBERLAND     RAIN      54  52  94 N6        29.58R
RICE LAKE      RAIN      56  54  90 CALM      29.59S
6HR MIN TEMP:  57; 6HR MAX TEMP:  72; 6HR PCP:  0.04;

CHETEK         LGT RAIN  56  55  99 CALM      29.58S
6HR MIN TEMP:  55; 6HR MAX TEMP:  71; 6HR PCP:  0.06;

LADYSMITH      LGT RAIN  59  53  79 SW3       29.61R
6HR MIN TEMP:  59; 6HR MAX TEMP:  73; 6HR PCP:  0.02;

EAU CLAIRE     LGT RAIN  56  55  97 SE7       29.57R FOG
6HR MIN TEMP:  56; 6HR MAX TEMP:  73; 6HR PCP:  0.35;

MENOMONIE      RAIN      56  55  99 E3        29.58R
6HR MIN TEMP:  54; 6HR MAX TEMP:  72;

NEW RICHMOND   RAIN      54  52  95 NE3       29.58R
6HR MIN TEMP:  54; 6HR MAX TEMP:  67; 6HR PCP:  0.15;

OSCEOLA        LGT RAIN  55  55 100 CALM      29.60R
6HR MIN TEMP:  55; 6HR MAX TEMP:  67; 6HR PCP:  0.10;

$$

WIZ003>005-009-010-017-018-260100-
NORTH CENTRAL WISCONSIN

CITY           SKY/WX    TMP DP  RH WIND       PRES   REMARKS
MANITOWISH WTR CLOUDY    56  41  57 N5        29.60R
6HR MIN TEMP:  56; 6HR MAX TEMP:  73;

ARBOR VITAE    LGT RAIN  60  49  67 N9        29.59S
6HR MIN TEMP:  60; 6HR MAX TEMP:  75;

WOODRUFF       LGT RAIN  60  49  67 N9        29.59S
6HR MIN TEMP:  60; 6HR MAX TEMP:  75;

RHINELANDER    LGT RAIN  68  46  45 SW3       29.59R
6HR MIN TEMP:  68; 6HR MAX TEMP:  75; 6HR PCP: TRACE;

EAGLE RIVER    LGT RAIN  65  41  42 CALM      29.59R
6HR MIN TEMP:  65; 6HR MAX TEMP:  73;

LAND O LAKES   LGT RAIN  59  41  51 N5        29.62R
6HR MIN TEMP:  59; 6HR MAX TEMP:  76;

PHILLIPS       DRIZZLE   57  52  81 N5        29.59R
6HR MIN TEMP:  58; 6HR MAX TEMP:  73;

TOMAHAWK       LGT RAIN  60  49  66 CALM      29.59S
6HR MIN TEMP:  59; 6HR MAX TEMP:  75;

MEDFORD        RAIN      55  52  90 W3        29.60R
6HR MIN TEMP:  55; 6HR MAX TEMP:  70; 6HR PCP:  0.02;

MERRILL        RAIN      59  50  70 W6        29.59R
6HR MIN TEMP:  59; 6HR MAX TEMP:  74;

$$

WIZ029-030-035-036-043>047-260100-
CENTRAL WISCONSIN

CITY           SKY/WX    TMP DP  RH WIND       PRES   REMARKS
WAUSAU         LGT RAIN  61  48  62 W5        29.57R
6HR MIN TEMP:  61; 6HR MAX TEMP:  74; 6HR PCP:  0.01;

MOSINEE        LGT RAIN  61  52  72 W10       29.59S
MARSHFIELD     LGT RAIN  56  52  86 NW9       29.58S
6HR MIN TEMP:  56; 6HR MAX TEMP:  74; 6HR PCP: TRACE;

STEVENS POINT  CLOUDY    64  46  52 NW6       29.57S
6HR MIN TEMP:  64; 6HR MAX TEMP:  73;

WAUPACA        CLOUDY    68  50  51 E9        29.58R
6HR MIN TEMP:  68; 6HR MAX TEMP:  78;

WAUTOMA        CLOUDY    70  47  43 E9          N/A
6HR MIN TEMP:  69; 6HR MAX TEMP:  77;

WISC RAPIDS    CLOUDY    62  52  69 N3        29.57S
6HR MIN TEMP:  61; 6HR MAX TEMP:  77; 6HR PCP:  0.01;

CAMP DOUGLAS   CLOUDY    63  52  67 N6        29.53F
                                      6HR PCP: TRACE;

$$

WIZ011>013-019>022-031-037>040-048>050-260100-
NORTHEAST WISCONSIN

CITY           SKY/WX    TMP DP  RH WIND       PRES   REMARKS
ANTIGO         CLOUDY    61  50  66 SE5       29.59F
6HR MIN TEMP:  60; 6HR MAX TEMP:  71;

SHAWANO        CLOUDY    67  50  54 S9        29.59R
OCONTO         CLOUDY    60  48  65 SE6       29.59F
6HR MIN TEMP:  60; 6HR MAX TEMP:  68;

STURGEON BAY   LGT RAIN  61  52  72 S13       29.62F
6HR MIN TEMP:  59; 6HR MAX TEMP:  63; 6HR PCP: TRACE;

GREEN BAY      CLOUDY    64  50  60 SE8       29.59F
6HR MIN TEMP:  63; 6HR MAX TEMP:  73; 6HR PCP: TRACE;

MANITOWOC      CLOUDY    57  49  74 SE7       29.62F
6HR MIN TEMP:  53; 6HR MAX TEMP:  58;

APPLETON       MOCLDY    63  46  55 SE9       29.58R
CLINTONVILLE   CLOUDY    64  48  55 SE7       29.58S
OSHKOSH        MOCLDY    66  50  56 SE9       29.57S
6HR MIN TEMP:  66; 6HR MAX TEMP:  75; 6HR PCP: TRACE;

$$

WIZ032>034-041-042-053>061-260100-
SOUTHWEST WISCONSIN

CITY           SKY/WX    TMP DP  RH WIND       PRES   REMARKS
LA CROSSE      CLOUDY    61  55  81 NW5       29.51F
6HR MIN TEMP:  60; 6HR MAX TEMP:  73; 6HR PCP:  0.05;

SPARTA         CLOUDY    58  55  88 NE3       29.53F
6HR MIN TEMP:  58; 6HR MAX TEMP:  73; 6HR PCP:  0.04;

VIROQUA        CLOUDY    63  50  63 NE6       29.52S
6HR MIN TEMP:  64; 6HR MAX TEMP:  70;

BOSCOBEL       MOCLDY    74  42  31 E3        29.49S
6HR MIN TEMP:  69; 6HR MAX TEMP:  75; 6HR PCP: TRACE;

PRAIRIE DU CHI MOCLDY    71  41  33 E5        29.47F
6HR MIN TEMP:  66; 6HR MAX TEMP:  73;

PLATTEVILLE    CLOUDY    71  46  41 SE6       29.50S
6HR MIN TEMP:  65; 6HR MAX TEMP:  74;

$$

WIZ056-057-062-063-064-067-068-260100-
SOUTH CENTRAL WISCONSIN

CITY           SKY/WX    TMP DP  RH WIND       PRES   REMARKS
REEDSBURG      CLOUDY    70  47  43 CALM      29.52S
6HR MIN TEMP:  65; 6HR MAX TEMP:  74;

BARABOO/DELLS  CLOUDY    69  47  46 E6        29.52S
6HR MIN TEMP:  69; 6HR MAX TEMP:  73;

LONE ROCK      CLOUDY    68  52  56 E7        29.50S
6HR MIN TEMP:  68; 6HR MAX TEMP:  74;

MINERAL POINT  CLOUDY    72  45  37 E5        29.50S
MADISON        CLOUDY    70  50  49 E9        29.51S
6HR MIN TEMP:  70; 6HR MAX TEMP:  74; 6HR PCP: TRACE;

MIDDLETON      CLOUDY    71  49  44 E5        29.52R
6HR MIN TEMP:  71; 6HR MAX TEMP:  74;

WATERTOWN      MOCLDY    69  51  52 E8        29.54S
6HR MIN TEMP:  69; 6HR MAX TEMP:  74;

MONROE         MOCLDY    72  45  37 SE9       29.51R
JANESVILLE     CLOUDY    75  46  35 SE12      29.50F
$$

WIZ051-052-058>065-066-070>072-260100-
SOUTHEAST WISCONSIN

CITY           SKY/WX    TMP DP  RH WIND       PRES   REMARKS
MILWAUKEE      CLOUDY    62  51  67 SE13      29.58S
6HR MIN TEMP:  62; 6HR MAX TEMP:  70;

WAUKESHA       CLEAR     66  48  52 SE14      29.57F
MILWAUKEE/TIMM CLEAR     64  46  52 E7        29.58F
RACINE         PTCLDY    60  49  66 SE12      29.59R
6HR MIN TEMP:  60; 6HR MAX TEMP:  66;

KENOSHA        MOCLDY    64  50  60 E13       29.56S
6HR MIN TEMP:  64; 6HR MAX TEMP:  71;

FOND DU LAC    CLOUDY    68  48  48 SE10      29.57F
6HR MIN TEMP:  68; 6HR MAX TEMP:  75; 6HR PCP: TRACE;

SHEBOYGAN      CLOUDY    60  52  74 SE7       29.60F
6HR MIN TEMP:  59; 6HR MAX TEMP:  63;

WEST BEND      CLOUDY    63  50  63 SE8       29.59S
JUNEAU         MOCLDY    67  51  55 E10       29.56S
6HR MIN TEMP:  67; 6HR MAX TEMP:  73;

$$

LSZ147-162-260100-
LAKE SUPERIOR

STATION/POSITION TIME  TEMP    WIND        PRES    WAVE
                       AIR SEA DIR/SP/G            HT/PER
                 (UTC) (F)     (DEG/KT/KT) (MB)    (FT/S)
DEVILS ISLAND    0000   40      40/ 13/ 15 1006.6R
SAXON HARBOR     2340   40      30/ 13/ 16 1004.7R
$$

LMZ867-665-643>646-260100-
LAKE MICHIGAN

STATION/POSITION TIME  TEMP    WIND        PRES    WAVE
                       AIR SEA DIR/SP/G            HT/PER
                 (UTC) (F)     (DEG/KT/KT) (MB)    (FT/S)
CHAMBERS ISLAND  2330   61     150/  4/ 10 1002.7F
N MID LAKE BUOY  2350   40 37   80/  6/  8 1005.7F   1/ 4
NORTHPORT PIER   2340   43     120/  9/ 12 1004.1S
SIST


USA.gov is the U.S. government's official web portal to all federal, state and local government web resources and services.